Weather Service Report


805 
ASUS44 KMEG 261610
RWRMEG
MEMPHIS CWA HOURLY WEATHER ROUNDUP
NATIONAL WEATHER SERVICE MEMPHIS TN
1100 AM CDT WED APR 26 2017

...WEST TENNESSEE...
  
CITY           SKY/WX    TMP DP  RH WIND       PRES   REMARKS
MEMPHIS INTL   FAIR      77  65  66 S14       29.65R                  
NWS MEMPHIS      N/A     77 N/A N/A MISG        N/A                   
JACKSON        FAIR      76  65  68 S10G22    29.67R                  
SOMERVILLE     MOSUNNY   75  63  64 S17G24    29.67S                  
BOLIVAR        MOSUNNY   75  64  69 S16G25    29.68S                  
LEXINGTON      SUNNY     75  63  64 S15G23    29.68R                  
SAVANNAH       SUNNY     75  63  64 S17       29.69F                  
DYERSBURG      PTSUNNY   77  64  64 S12G18    29.65R                  
UNION CITY     SUNNY     75  64  69 S16       29.63R                  
PARIS          SUNNY     73  63  68 S12       29.66S                  
HUNTINGDON     MOSUNNY   77  64  65 S16       29.66S                  


...EASTERN ARKANSAS...
  
CITY           SKY/WX    TMP DP  RH WIND       PRES   REMARKS
JONESBORO      PTSUNNY   74  64  71 S16       29.60S                  
WEST MEMPHIS   CLOUDY    73  65  75 S16       29.63R                  
BATESVILLE     CLOUDY   N/A N/A N/A S8G18     29.57R                  
NEWPORT        FAIR      73  65  75 S24       29.58                   
WALNUT RIDGE   PTSUNNY   73  63  68 S17       29.59R                  
BLYTHEVILLE    PTSUNNY   75  64  68 S14       29.64R                  
NW BLYTHEVILLE CLOUDY    77  64  65 S13G22    29.63R                  
SEARCY         CLOUDY    71  66  84 S14       29.59F                  
STUTTGART      CLOUDY    72  57  60 SE23      29.61F                  
PINE BLUFF     CLOUDY    70  65  84 SE14      29.60S                  
MONTICELLO     CLOUDY    70  64  81 SE10      29.62S                  


...NORTH MISSISSIPPI...
  
CITY           SKY/WX    TMP DP  RH WIND       PRES   REMARKS
TUPELO         FAIR      72  60  66 S15       29.72F                  
OXFORD         CLOUDY    72  61  68 SW9G21    29.74R                  
BATESVILLE     FAIR      75  63  64 S13G18    29.69S                  
OLIVE BRANCH   PTSUNNY  N/A N/A N/A S9        29.66S                  
TUNICA         FAIR      75  63  64 S21G26    29.65R                  
CLARKSDALE     CLOUDY    75  66  73 S18       29.67R                  
CORINTH        FAIR      75  61  60 S10G18    29.70R                  
GREENWOOD      PTSUNNY   74  63  68 S17G26    29.71S                  
COLUMBUS       PTSUNNY   73  63  68 SW12      29.76R                  
STARKVILLE     CLOUDY    70  61  73 S9        29.78S                  
GOLDEN TRIANGL CLOUDY    72  57  60 S12       29.74S                  


...SOUTHEAST MISSOURI...
  
CITY           SKY/WX    TMP DP  RH WIND       PRES   REMARKS
KENNETT        PTSUNNY   75  64  69 S13G24    29.60R HAZE             
MALDEN         FAIR      75  63  64 S17G23    29.62R                  
WEST PLAINS    TSTM      58  56  93 SE5       29.62S FOG              
POPLAR BLUFF   CLOUDY    72  64  76 S10G22    29.60R                  
CAPE GIRARDEAU FAIR      75  63  66 S15G26    29.59R                  


...NORTHWEST ALABAMA...
  
CITY           SKY/WX    TMP DP  RH WIND       PRES   REMARKS
MUSCLE SHOALS  FAIR      75  58  55 S12       29.76R                  


...MIDDLE TENNESSEE...
  
CITY           SKY/WX    TMP DP  RH WIND       PRES   REMARKS
NASHVILLE      FAIR      77  61  57 S13G20    29.72F                  
CLARKSVILLE    FAIR      75  61  61 S9        29.67S                  
COLUMBIA       SUNNY     75  72  88 SE9       29.71F                  


...WESTERN KENTUCKY...
  
CITY           SKY/WX    TMP DP  RH WIND       PRES   REMARKS
PADUCAH        FAIR      77  62  59 S13       29.60S                  
FORT CAMPBELL  FAIR      76  62  61 S13       29.67R                  


...CENTRAL ARKANSAS...
  
CITY           SKY/WX    TMP DP  RH WIND       PRES   REMARKS
LITTLE ROCK    CLOUDY    70  66  87 SE10      29.57F                  


SKY/WX REPORTED AS FAIR MEANS FEW OR NO CLOUDS BELOW
12 THOUSAND FEET.

  


012 
ASUS44 KMEG 261610
RWRTN 
TENNESSEE HOURLY STATE WEATHER ROUNDUP
NATIONAL WEATHER SERVICE MEMPHIS TN
1100 AM CDT WED APR 26 2017

TNZ002-004-019-021-049-052-054-088>092-261700-
WEST TENNESSEE
  
CITY           SKY/WX    TMP DP  RH WIND       PRES   REMARKS
MEMPHIS INTL   FAIR      77  65  66 S14       29.65R                  
NWS MEMPHIS      N/A     77 N/A N/A MISG        N/A                   
JACKSON        FAIR      76  65  68 S10G22    29.67R                  
DYERSBURG      PTSUNNY   77  64  64 S12G18    29.65R                  
SOMERVILLE     MOSUNNY   75  63  64 S17G24    29.67S                  
UNION CITY     SUNNY     75  64  69 S16       29.63R                  
BOLIVAR        MOSUNNY   75  64  69 S16G25    29.68S                  
PARIS          SUNNY     73  63  68 S12       29.66S                  
HUNTINGDON     MOSUNNY   77  64  65 S16       29.66S                  
LEXINGTON      SUNNY     75  63  64 S15G23    29.68R                  
SAVANNAH       SUNNY     75  63  64 S17       29.69F                  
$$

TNZ008-025-027-028-033-062-065-066-261700-
NORTH MIDDLE TENNESSEE
  
CITY           SKY/WX    TMP DP  RH WIND       PRES   REMARKS
NASHVILLE      FAIR      77  61  57 S13G20    29.72F                  
PORTLAND       SUNNY     75  61  60 S13G22    29.70F                  
CLARKSVILLE    FAIR      75  61  61 S9        29.67S                  
SMYRNA         FAIR      76  61  59 S12G17    29.74F                  
COOKEVILLE     MOSUNNY   73  61  64 SW8G16    29.78S                  
GALLATIN       SUNNY     75  59  57 S10G16    29.74F                  
CROSSVILLE     FAIR      71  56  58 VRB5      29.83S                  
$$

TNZ061-075-076-078-094-096-097-261700-
SOUTH MIDDLE TENNESSEE
  
CITY           SKY/WX    TMP DP  RH WIND       PRES   REMARKS
FAYETTEVILLE   SUNNY     73  59  60 S10       29.78S                  
TULLAHOMA      MOSUNNY   72  59  64 S9        29.79F                  
WINCHESTER     MOSUNNY   73  59  60 SW5       29.79S                  
MCMINNVILLE    MOSUNNY   73  61  64 S6        29.79S                  
COLUMBIA       SUNNY     75  72  88 SE9       29.71F                  
SHELBYVILLE    SUNNY     75  63  64 S7        29.78R                  
$$

TNZ017-018-042-046-047-261700-
NORTHEAST TENNESSEE
  
CITY           SKY/WX    TMP DP  RH WIND       PRES   REMARKS
TRI CITIES     FAIR      70  57  63 SW3       29.85F                  
ELIZABETHTON   FAIR      72  59  64 W7        29.84F                  
$$

TNZ012-013-036-069-073-074-261700-
CENTRAL EAST TENNESSEE
  
CITY           SKY/WX    TMP DP  RH WIND       PRES   REMARKS
KNOXVILLE      FAIR      73  57  57 SW8       29.82S                  
OAK RIDGE      FAIR      73  57  57 VRB3      29.83S                  
DOWNTOWN KNOXV SUNNY     73  59  60 VRB5      29.82F                  
GATLINBURG     SUNNY     72  57  60 W3        29.81F                  
MORRISTOWN     SUNNY     72  59  64 CALM      29.83F                  
JACKSBORO      MOSUNNY   68  61  77 VRB3      29.86S                  
$$

TNZ083-085-099-261700-
SOUTHEAST TENNESSEE
  
CITY           SKY/WX    TMP DP  RH WIND       PRES   REMARKS
CHATTANOOGA    FAIR      74  58  57 CALM      29.81F                  
$$

SKY/WX REPORTED AS FAIR MEANS FEW OR NO CLOUDS BELOW
12 THOUSAND FEET.

  

Return to Home page


Western Regional Climate Center, wrcc@dri.edu